Location: LDNL
(36.4545°S, 141.6685°E)
Time: 11:09:25
(UTC+10:00)

Explorer 7 - Pass Details

Date: 19 August 2022
Orbit: 482 x 668 km, 50.3° (Epoch: 26 September)

Event Time Altitude Azimuth Distance (km) Brightness Sun altitude
Rises 00:37:58 0° 252° (WSW) 2,860 - -66.5°
Reaches altitude 10° 00:41:49 10° 285° (WNW) 1,893 - -66.5°
Maximum altitude 00:43:15 11° 304° (NW) 1,773 - -66.5°
Drops below altitude 10° 00:44:40 10° 324° (NW) 1,844 - -66.5°
Sets 00:48:16 0° 358° (N) 2,674 - -66.4°
